Temp
27 26 27 26 26 26 26 25 25 25 25 26 26 26 26 26 27 27 27 26 26 26 26 26 26 26 26 26 26 26 25 25 25 25 25 25 25 25 25 25 25 25 25 25 26 26 25 25 25 25 26 26 26 26 27 27 27 27 27 27 27 27 27 26 27 27 28 28 28 29 29 29 29 28 28 28 29 28 28 28 28 29 29 29 29
26 26 26 26 26 26 26 26 25 25 26 26 26 26 26 26 26 26 26 26 26 26 26 26 26 26 26 26 26 26 25 25 25 25 25 25 25 25 26 25 25 25 25 25 25 25 25 25 25 26 26 26 26 27 27 28 28 28 28 27 27 27 27 27 27 27 27 28 28 28 29 28 28 28 28 28 28 28 28 28 29 29 29 29 29
25 25 25 25 25 26 26 26 26 26 26 27 27 27 27 27 26 26 26 27 27 26 26 26 26 25 26 25 25 25 25 25 25 25 25 25 25 26 26 26 25 25 25 25 26 26 26 26 26 26 27 27 26 27 27 27 27 27 27 27 27 27 27 27 26 26 27 27 27 28 28 28 28 28 28 28 28 28 28 28 29 29 29 29 30
25 24 25 25 25 25 25 25 25 26 26 27 27 27 27 27 27 27 27 27 27 27 26 26 26 25 25 25 25 25 25 25 25 26 25 25 25 25 26 26 25 26 26 26 26 26 26 26 26 26 26 26 26 27 27 27 27 27 27 27 27 27 27 27 26 26 26 27 27 27 28 28 28 28 28 28 28 28 28 28 28 29 29 29 30
24 24 24 24 24 24 25 25 25 25 25 25 26 27 27 28 27 27 27 27 28 27 26 26 25 25 25 25 25 25 25 25 25 26 26 26 26 26 26 26 25 26 26 26 26 26 26 26 26 26 26 26 26 27 27 27 27 27 27 27 27 27 27 27 27 26 26 27 27 27 27 28 28 28 28 28 28 28 28 28 28 28 28 28 29
23 23 23 24 24 24 24 25 25 25 24 24 25 26 26 27 27 27 27 27 27 27 27 26 26 25 25 25 26 25 25 25 25 25 26 26 26 26 26 26 26 26 26 26 26 26 26 26 26 26 26 26 27 27 27 27 27 27 27 27 27 27 27 27 27 27 26 27 27 27 28 28 28 28 28 28 28 28 28 28 28 28 28 28 28
23 23 23 24 23 24 24 24 24 24 24 24 24 24 25 26 27 27 27 27 27 27 27 27 26 26 25 26 26 26 25 25 25 25 25 26 26 26 26 26 26 26 26 26 26 27 27 26 27 26 26 26 27 27 27 27 27 27 27 27 26 26 27 27 27 27 27 27 28 28 28 28 28 28 28 28 27 28 28 28 28 28 28 27 27
23 23 23 23 23 23 23 23 23 23 23 23 23 23 24 25 26 26 26 26 26 27 27 27 27 26 26 26 26 26 26 25 25 25 25 26 26 26 26 26 26 27 27 27 27 27 27 27 27 27 27 27 26 26 27 27 27 27 27 26 26 26 26 27 27 27 27 27 28 28 28 28 28 28 29 29 28 28 28 28 28 28 27 27 27
22 22 23 23 23 23 23 23 23 23 23 23 23 23 23 24 24 25 25 25 26 26 27 27 27 27 26 26 26 26 26 26 26 26 26 26 26 26 27 27 27 27 27 27 27 27 27 27 28 28 27 27 26 26 26 26 26 26 26 26 26 26 26 26 27 27 27 27 28 28 28 28 29 29 29 29 29 29 29 28 28 28 28 27 27
22 22 22 23 23 23 23 23 22 22 22 23 23 23 22 23 23 23 24 24 25 26 26 26 27 27 26 26 26 26 27 27 27 26 26 26 26 26 26 26 26 26 27 27 27 27 27 28 28 27 27 26 26 26 26 26 25 25 25 25 25 25 25 26 26 27 27 27 28 28 28 29 29 29 29 29 29 29 29 28 28 28 27 27 27
22 21 22 22 22 21 22 22 21 21 21 21 22 22 22 22 22 22 23 24 24 24 24 25 26 26 26 26 26 27 27 27 26 26 25 25 25 26 26 26 26 26 26 26 26 27 27 27 28 27 27 26 26 26 26 26 26 25 25 25 25 25 25 25 26 26 27 27 28 28 29 29 29 29 29 29 29 29 29 28 28 27 27 27 27
21 21 22 21 21 21 21 21 21 21 21 21 21 21 21 21 21 21 22 23 23 23 24 24 25 25 26 26 26 27 26 26 25 25 25 25 25 25 26 26 27 26 26 26 26 27 27 27 27 28 27 27 26 26 25 25 25 26 26 26 26 26 25 25 25 26 26 27 27 28 28 28 28 28 29 29 29 28 28 27 27 27 27 27 27
21 21 21 21 21 21 21 21 21 21 21 21 20 21 21 21 21 21 21 22 23 23 23 24 24 24 25 25 26 26 25 24 25 24 24 25 25 25 25 26 27 27 27 27 27 27 27 27 27 27 27 27 26 26 25 25 25 25 26 26 26 26 26 26 26 26 26 26 26 27 27 27 27 28 27 27 27 26 27 27 27 27 27 27 27
19 19 20 20 20 20 21 21 21 21 21 20 20 21 21 21 21 21 21 22 22 22 23 23 24 24 24 24 25 25 23 23 23 24 24 24 24 25 25 25 26 27 27 27 27 27 26 26 26 27 27 26 25 25 25 25 25 25 25 25 26 26 26 26 26 26 26 25 25 26 26 26 26 26 26 26 25 25 26 26 26 26 26 26 26
17 17 18 18 18 19 19 19 20 20 20 20 20 21 21 21 21 21 21 21 22 22 22 22 23 23 23 24 24 23 22 22 22 23 23 24 24 24 24 24 25 26 26 26 26 26 26 26 26 26 26 25 24 24 24 24 24 24 25 25 26 26 26 26 26 26 26 25 25 26 26 26 26 26 26 25 25 25 25 25 25 25 25 25 25
16 16 17 17 17 17 18 18 18 18 19 19 20 20 20 20 20 21 21 21 21 21 22 22 22 22 23 24 23 21 21 21 21 22 23 23 23 24 24 23 24 25 25 25 24 25 25 25 25 25 25 24 23 24 24 24 24 24 25 25 25 26 26 26 26 26 26 26 25 25 25 25 25 25 25 25 25 24 24 25 25 25 26 26 26
16 16 16 16 17 17 17 18 17 17 18 18 18 18 19 19 19 20 20 21 21 21 21 21 22 22 22 23 22 20 20 21 20 21 22 22 23 23 23 24 24 24 24 24 24 24 24 23 24 24 24 23 22 23 23 23 23 23 24 25 25 25 25 25 25 25 25 25 25 24 24 24 24 24 24 24 24 24 23 23 24 26 26 27 27
16 16 16 16 16 16 17 17 17 17 17 17 17 17 18 18 18 19 19 20 20 20 21 21 21 21 21 21 21 19 19 19 20 20 21 21 22 22 23 24 24 24 24 24 23 23 23 22 23 23 22 22 22 22 22 22 22 23 24 24 25 25 25 25 25 25 24 24 24 24 24 24 24 24 24 24 24 23 23 23 24 25 26 27 27
16 15 15 16 16 16 17 17 17 17 17 17 16 17 17 17 18 18 19 19 19 20 20 20 20 20 20 20 19 19 18 19 19 19 20 21 21 22 22 23 23 23 24 24 23 22 21 21 22 22 22 22 21 21 21 21 21 22 23 24 24 25 24 24 24 24 23 23 23 23 24 24 24 24 24 24 24 24 24 23 24 25 26 26 27
16 16 16 16 16 16 16 17 16 16 17 16 16 17 17 17 18 18 19 19 19 19 20 19 19 20 19 19 19 18 18 18 18 19 20 20 21 21 21 21 21 23 23 23 23 23 21 21 21 21 21 21 21 21 21 21 21 21 21 22 23 23 23 23 22 22 22 22 23 23 23 24 24 24 24 24 24 24 24 24 24 25 25 26 26
16 16 16 17 17 16 16 16 16 16 16 16 17 17 17 17 18 18 19 19 19 19 19 19 20 20 20 20 19 18 17 18 18 18 19 19 20 20 20 20 20 21 22 22 22 23 22 21 21 21 21 21 21 21 21 21 22 22 21 21 22 22 22 22 22 21 22 23 23 23 24 24 25 25 25 25 25 25 24 24 24 24 24 25 26
15 16 16 17 17 16 16 16 16 16 16 16 17 17 17 17 18 18 19 19 18 18 18 19 20 20 20 20 19 17 17 18 18 18 19 19 19 19 20 20 20 21 22 22 22 22 22 22 21 21 21 21 21 22 22 22 22 22 22 22 22 22 22 22 22 22 22 23 24 24 24 25 25 25 25 25 25 25 24 24 24 24 24 24 24
16 15 16 16 16 16 16 16 16 16 16 17 17 17 17 17 17 18 18 19 18 18 19 19 20 20 20 20 19 17 17 17 18 18 18 18 19 19 19 20 20 20 21 22 22 22 22 21 21 21 21 21 22 22 22 22 22 22 22 22 22 22 22 22 22 21 22 23 23 23 24 24 25 25 25 25 25 24 23 23 24 24 24 24 24
16 16 16 16 16 16 16 16 16 16 16 16 17 17 17 17 17 17 18 19 19 19 19 20 20 20 20 20 19 18 17 17 17 17 18 18 18 18 19 19 19 20 20 21 21 21 20 20 20 21 21 21 21 22 22 22 22 22 22 22 22 22 22 22 22 22 22 22 23 23 24 24 24 24 24 23 23 22 22 23 23 23 23 23 23
16 16 16 16 16 16 16 16 16 16 16 16 16 17 17 17 17 17 18 19 19 19 19 20 20 20 20 20 19 18 18 17 17 17 17 17 17 17 18 18 19 19 19 19 19 20 20 20 20 21 21 21 21 22 22 22 22 22 22 22 22 22 22 22 22 22 22 22 23 23 24 24 24 23 23 22 22 22 23 23 23 23 23 23 23
16 16 16 16 16 16 16 16 16 16 16 16 16 16 16 17 17 17 18 19 19 19 19 20 20 20 20 19 19 18 18 18 18 17 16 17 17 17 17 17 18 18 19 19 19 19 19 19 20 20 20 21 21 21 22 21 22 22 22 22 22 22 22 22 22 22 22 22 23 23 24 24 23 23 22 22 22 23 23 23 23 23 23 23 23
16 16 16 16 16 16 16 16 16 16 16 17 17 17 17 17 18 18 18 19 19 19 19 19 20 19 19 19 18 18 18 18 17 16 15 15 16 16 16 16 16 17 18 18 18 18 18 19 20 20 20 21 21 22 22 21 21 22 22 22 22 22 22 22 22 22 22 22 22 23 23 23 22 22 22 22 22 22 22 22 22 22 23 23 23
16 16 16 16 16 16 16 16 16 17 16 16 17 17 17 18 18 18 17 17 18 18 19 19 18 18 18 18 18 19 19 17 15 14 14 14 14 15 15 15 15 16 16 17 16 17 17 18 19 20 20 21 22 22 22 22 22 22 22 23 23 23 22 22 21 21 22 22 22 22 22 22 22 22 22 22 22 22 22 21 21 21 22 22 22
16 16 16 17 16 16 16 16 16 16 16 16 15 15 15 16 16 16 15 14 15 16 16 17 16 17 18 17 17 18 18 16 13 12 13 13 13 14 14 14 14 15 15 16 16 17 17 18 20 21 21 22 22 23 23 23 23 23 23 23 22 23 23 23 22 22 22 22 21 21 21 21 21 22 22 22 22 21 21 21 21 21 21 22 22
15 16 16 16 16 16 16 16 15 15 16 16 15 15 14 14 14 14 13 13 14 14 14 14 14 15 16 16 15 15 15 13 12 12 12 12 13 13 13 14 14 15 15 16 16 17 17 19 21 21 22 22 22 22 23 23 23 23 23 23 23 23 23 23 23 23 22 21 21 21 21 21 21 22 22 22 22 22 21 21 21 21 21 22 22
16 16 15 15 14 15 15 15 14 14 15 15 15 15 15 14 14 13 13 13 13 13 13 13 13 13 14 14 13 13 12 12 12 12 12 12 13 13 13 13 14 14 15 15 16 17 18 20 21 21 21 21 22 22 22 22 22 22 22 22 23 23 23 22 22 22 21 21 21 21 21 21 21 22 22 21 21 21 21 21 22 22 22 22 22
15 16 15 14 14 14 14 14 14 14 14 14 14 15 15 15 14 13 13 13 12 12 12 12 12 12 12 13 13 12 12 12 12 12 12 13 13 13 13 14 14 14 14 15 16 17 19 20 20 21 21 21 21 21 21 22 22 21 22 22 22 22 22 22 21 21 21 21 21 21 21 21 21 21 21 21 21 21 21 21 22 22 22 22 22
15 15 15 14 14 14 14 14 14 14 14 14 14 14 15 16 16 15 14 13 13 12 12 12 12 12 12 12 12 12 11 11 11 12 12 13 13 13 14 15 15 15 15 15 16 18 19 19 20 20 20 21 21 21 21 21 21 21 21 21 21 21 21 21 20 20 20 21 21 21 21 21 21 21 21 21 21 21 21 21 21 22 22 22 22
14 14 13 13 13 14 14 14 14 14 14 13 14 14 15 15 15 15 15 15 14 13 13 12 12 12 12 11 11 11 11 11 11 12 12 13 13 14 14 15 16 16 15 15 16 17 18 19 19 20 19 20 20 20 20 20 20 20 20 20 20 21 20 20 20 20 20 20 20 21 21 21 21 21 20 20 21 21 21 21 21 21 22 22 22
13 13 12 12 13 13 13 13 13 13 13 13 13 14 14 14 14 15 15 15 15 15 14 14 12 12 11 11 11 11 11 11 11 12 12 13 13 14 15 16 17 17 16 16 16 17 18 18 18 18 19 19 19 19 19 19 19 19 19 20 20 20 20 20 20 20 20 19 20 20 20 20 20 20 20 20 20 20 20 20 21 21 21 21 21
13 13 13 12 13 13 13 13 13 12 12 13 13 13 14 14 14 14 15 15 15 15 15 14 13 12 12 11 11 11 11 11 11 12 12 12 13 13 14 15 17 17 17 17 17 17 17 17 18 18 18 18 18 18 18 18 18 18 18 19 19 19 19 19 19 19 19 19 19 19 19 19 19 19 20 20 20 20 20 20 20 20 20 20 20
13 14 13 13 12 12 12 12 12 11 11 12 12 13 13 13 14 14 15 14 14 14 15 14 14 13 13 12 12 11 11 11 11 12 12 12 12 13 14 15 16 16 16 17 17 16 16 17 17 17 17 17 17 18 18 18 18 18 18 18 18 18 18 18 18 17 17 18 18 18 18 19 19 19 19 19 19 19 19 19 19 19 19 19 19
12 13 12 12 11 12 12 12 12 11 11 12 13 13 13 13 14 14 14 14 14 14 14 14 14 14 14 14 13 12 11 11 12 13 13 13 13 13 14 15 15 15 16 16 16 15 16 16 16 16 16 16 17 17 17 17 17 17 17 17 17 17 17 17 17 17 17 17 18 18 18 18 19 19 19 19 19 19 19 19 19 19 19 19 19
11 11 11 10 10 11 11 12 12 12 12 13 13 13 13 13 13 14 14 14 14 14 14 14 14 14 14 13 13 12 12 12 13 14 14 13 13 13 14 14 14 14 15 15 15 15 15 15 15 15 15 15 15 16 16 16 16 16 16 16 16 17 17 17 17 17 17 17 17 17 17 18 18 18 18 18 18 18 18 18 18 18 18 18 18
12 11 10 10 10 11 11 11 12 12 13 13 13 13 13 13 13 13 14 14 14 14 14 14 14 14 13 12 11 11 11 11 12 13 13 13 13 13 13 13 13 13 13 13 14 14 14 14 14 14 14 14 14 15 15 14 15 15 15 15 16 16 16 17 17 17 16 16 16 16 16 17 17 17 17 17 17 17 17 17 17 17 17 17 18
12 12 11 10 10 11 11 11 12 12 12 12 12 12 13 13 13 13 13 13 13 14 13 13 14 13 12 11 10 10 9 10 11 12 12 12 13 13 13 13 13 13 13 13 13 12 12 13 13 13 13 13 13 13 13 13 14 14 14 15 15 15 15 15 15 15 15 15 15 15 15 15 15 15 15 15 15 15 15 16 16 16 17 17 17
12 12 11 11 10 10 11 12 12 11 11 11 11 12 12 12 12 13 13 13 13 13 13 13 13 12 11 10 9 9 9 9 10 11 11 12 12 12 12 12 12 12 12 12 12 12 12 12 12 12 12 12 12 12 12 12 13 13 13 13 13 13 13 13 13 13 13 13 13 14 14 14 14 14 14 14 14 14 14 15 15 15 16 16 16
12 12 11 11 11 11 11 11 11 11 11 11 11 12 12 12 12 12 12 12 12 12 12 12 12 12 11 9 9 9 9 9 10 11 11 11 11 11 11 11 11 11 11 11 11 10 10 11 11 11 11 11 11 12 12 12 12 12 12 12 12 12 12 12 12 12 12 13 13 12 12 12 12 13 13 13 13 13 13 13 14 14 15 15 15
11 11 11 11 11 11 11 11 11 11 11 11 11 11 11 11 11 11 11 11 11 11 11 12 12 12 11 10 10 9 9 9 10 10 10 10 10 10 10 10 10 10 10 10 10 10 10 10 10 10 10 10 10 10 11 11 11 11 11 11 11 11 11 12 12 12 12 12 12 11 11 11 12 12 12 13 13 13 13 13 13 13 14 14 14
11 11 11 11 11 11 10 10 10 10 10 11 11 11 10 10 10 10 10 10 10 10 10 11 11 11 10 10 10 9 9 9 9 9 9 9 9 9 9 9 9 9 9 9 9 9 9 9 9 9 9 9 9 9 9 9 9 10 10 10 10 10 10 10 11 10 10 10 10 10 10 10 11 11 11 12 12 12 12 13 13 13 13 13 13
11 11 11 11 11 11 11 10 10 10 10 10 11 10 10 9 9 9 9 9 9 9 9 9 9 9 9 9 9 9 8 8 8 8 8 8 8 8 8 8 8 8 8 8 8 8 8 8 8 8 8 8 8 8 8 8 8 9 9 9 9 9 9 9 8 8 8 8 8 8 8 9 9 9 10 10 10 11 11 12 12 12 12 13 13
10 10 10 11 11 10 10 10 10 10 9 9 9 9 9 9 9 9 8 8 8 8 8 8 8 8 8 8 8 8 7 7 7 7 7 7 7 7 7 7 7 7 7 7 7 7 7 7 7 7 7 8 8 8 8 8 8 8 8 8 8 8 7 7 7 6 5 5 6 6 6 6 7 8 8 9 9 10 10 10 11 11 12 12 12
9 9 9 10 10 10 10 10 9 9 8 8 8 8 8 8 8 8 8 8 7 7 7 7 7 7 7 7 7 7 7 7 7 7 6 7 7 7 6 6 6 6 6 6 7 7 7 7 7 7 7 7 7 7 7 7 7 7 7 7 7 6 6 6 6 5 5 4 4 4 5 5 6 6 7 8 8 9 9 9 9 10 10 11 11
8 9 9 9 9 10 10 10 9 8 8 8 8 8 8 8 7 7 7 7 7 7 7 7 6 6 6 6 6 6 6 6 6 6 6 6 6 6 5 5 5 5 5 5 6 6 6 6 6 6 6 6 6 7 6 6 7 7 7 6 6 5 5 5 5 5 4 4 3 3 4 4 5 5 6 7 7 8 8 8 9 9 9 10 10
7 8 8 9 9 9 9 9 8 8 7 7 7 7 7 7 6 6 6 6 6 6 6 6 5 5 5 5 5 5 5 5 5 5 5 5 5 5 4 4 4 4 4 4 5 5 5 5 5 5 5 5 5 6 6 6 6 6 5 5 5 5 5 5 5 4 3 2 2 2 2 3 3 4 5 5 6 7 8 8 8 8 9 9 10
7 7 8 8 8 8 8 8 7 7 6 6 6 6 6 6 6 6 6 6 5 5 5 5 5 5 5 4 4 4 4 4 4 4 4 4 4 4 4 4 4 4 4 4 4 4 4 4 4 4 4 4 5 5 5 5 5 5 4 4 4 4 4 3 3 3 2 1 1 1 1 1 2 3 4 5 5 6 7 7 8 8 8 9 9
Height
852 854 856 858 859 860 862 864 865 867 868 869 870 871 872 873 874 874 875 876 876 877 878 878 879 879 879 879 880 880 880 881 882 882 882 883 883 883 883 884 884 884 884 884 884 884 884 884 884 884 884 883 883 883 882 882 882 881 881 881 881 880 880 880 879 878 877 876 874 873 872 871 870 870 869 868 867 866 865 863 862 860 858 857 855
851 853 854 856 858 859 861 862 864 865 866 867 868 870 871 871 872 873 874 875 875 876 876 877 878 878 878 879 879 879 880 880 880 881 881 882 882 882 882 883 883 883 883 883 883 883 883 883 883 883 883 883 883 882 882 881 880 880 880 880 880 880 880 880 879 878 876 875 874 873 872 871 870 869 869 868 867 866 864 863 861 859 857 856 854
849 851 853 855 856 858 860 861 862 863 864 865 866 867 868 869 871 872 872 873 873 874 875 875 876 877 877 878 878 879 879 879 879 879 880 881 881 881 881 882 882 883 883 883 882 882 882 882 882 882 881 881 882 882 881 881 881 880 880 880 880 880 879 879 879 878 876 875 874 873 871 871 870 869 868 867 866 865 864 862 860 858 857 855 853
849 851 852 854 855 857 858 860 861 862 862 863 864 865 866 867 868 869 870 871 871 872 873 874 875 875 876 877 877 877 878 878 878 878 878 879 880 880 880 881 881 881 882 882 881 881 881 881 881 881 881 881 881 881 880 880 880 880 880 879 879 879 878 878 878 877 876 875 874 872 871 870 869 868 867 866 865 864 863 861 859 857 856 854 852
849 850 852 853 854 856 857 858 860 861 862 862 863 864 864 865 866 867 868 869 870 870 872 872 873 874 875 875 875 876 876 877 877 877 877 878 878 878 879 879 880 880 880 880 880 881 880 880 880 880 880 880 880 880 879 880 880 879 879 878 878 878 878 877 877 876 876 874 873 872 871 869 868 867 867 865 864 863 861 860 858 856 854 853 851
846 848 850 851 853 854 855 856 857 859 860 861 862 862 863 863 864 865 866 868 868 869 870 871 872 872 873 874 874 874 875 876 876 876 876 876 876 877 877 877 878 878 879 879 879 879 879 879 879 879 879 879 879 879 879 879 879 878 878 878 878 877 877 876 875 875 874 873 872 870 869 868 867 866 865 864 863 861 860 858 856 855 853 851 849
845 846 847 849 851 852 853 854 855 856 857 858 859 860 861 862 862 863 864 865 866 867 868 869 870 871 871 872 872 873 873 874 874 875 875 875 875 876 876 876 876 876 877 877 877 877 877 877 877 877 878 878 878 878 878 878 878 878 877 877 877 876 875 875 874 873 873 871 870 868 867 866 865 864 863 862 861 860 858 856 854 853 852 850 848
843 844 845 847 848 849 851 853 853 854 855 856 857 858 859 860 860 861 863 864 865 865 866 867 868 869 869 870 871 871 872 872 872 873 873 874 874 874 875 875 875 875 875 875 875 875 875 876 875 876 876 876 877 877 877 877 877 877 877 876 876 875 874 874 873 872 871 869 868 867 866 865 864 862 861 860 859 858 857 855 854 852 850 849 847
841 843 843 844 846 847 848 851 852 852 852 853 855 856 857 858 859 860 861 862 863 864 864 865 866 867 867 868 869 869 870 870 870 871 871 872 873 873 873 874 874 874 874 874 874 874 874 874 874 874 874 874 875 875 875 876 876 876 875 875 875 874 874 873 872 871 870 868 867 866 864 863 862 860 859 858 857 856 855 854 853 851 849 847 845
839 840 841 842 844 845 847 848 850 851 851 851 852 854 855 857 857 858 859 860 862 862 863 864 864 865 866 866 867 867 867 868 867 868 870 870 871 872 872 872 872 872 873 872 873 872 872 872 872 872 873 873 874 874 874 874 874 874 874 874 874 873 873 872 871 870 869 868 866 865 863 861 860 859 858 857 856 854 853 852 851 850 848 846 843
838 839 839 841 843 844 845 846 848 849 849 849 851 852 853 854 855 856 856 858 860 861 862 863 863 863 864 864 865 865 865 865 865 867 868 868 869 870 870 871 871 871 871 871 871 871 871 871 871 871 871 871 872 872 872 872 872 872 872 872 872 872 871 871 870 869 868 867 865 864 862 860 859 858 857 855 854 853 852 851 850 848 847 844 842
836 838 838 840 841 842 843 844 846 847 848 848 849 850 851 853 854 854 855 856 858 859 860 861 861 862 862 862 863 863 863 863 864 865 866 867 867 868 869 869 869 869 870 870 870 870 870 870 869 869 869 869 870 870 870 870 870 870 870 870 869 869 869 869 868 867 867 865 864 862 861 859 858 857 856 854 853 852 851 850 848 847 845 843 841
836 837 837 839 839 839 841 842 843 845 846 847 848 849 850 851 852 853 853 854 856 857 858 859 860 861 861 861 862 862 861 861 862 864 864 865 865 866 866 867 867 867 867 868 868 868 868 868 868 868 868 868 868 869 869 869 868 868 867 867 867 867 866 866 866 865 864 864 862 861 860 858 857 856 855 854 852 851 849 848 847 845 843 841 840
836 836 836 836 837 838 839 840 842 843 844 845 846 847 848 849 849 851 852 853 855 856 857 858 858 859 860 860 861 861 860 860 861 862 862 863 863 863 864 865 865 865 866 866 866 866 867 867 867 867 867 867 867 867 867 867 867 866 866 865 865 865 864 863 863 862 862 861 860 859 858 857 856 854 854 853 851 850 848 846 845 843 841 840 838
836 836 836 836 836 837 838 839 841 842 843 844 845 846 847 847 847 849 850 852 854 854 855 856 857 858 859 859 860 859 859 859 860 860 860 861 861 862 862 863 863 864 864 864 865 865 865 865 865 865 865 865 865 865 865 865 865 865 864 864 863 863 862 862 861 860 860 859 858 857 856 855 854 853 852 851 850 848 847 845 843 842 840 838 836
838 838 838 837 837 838 839 840 841 842 843 844 844 845 846 846 847 848 850 852 852 853 854 855 856 857 858 858 859 858 858 858 859 859 859 859 860 861 861 862 862 862 862 863 863 863 864 864 864 864 864 863 863 863 863 863 863 863 862 862 862 861 861 861 860 859 858 857 856 855 854 853 852 850 850 849 848 847 846 844 842 840 839 836 833
841 841 841 841 840 841 841 842 842 843 844 844 844 844 845 846 847 849 850 851 851 852 854 855 856 857 857 858 858 857 857 858 858 858 858 858 859 860 860 860 861 861 861 861 862 862 862 862 863 863 863 862 861 861 861 861 861 861 861 860 859 859 858 858 858 857 856 855 854 853 851 850 849 848 847 846 845 845 844 842 840 839 837 834 830
843 842 843 843 843 843 844 844 844 845 845 846 846 846 846 847 848 850 851 851 851 853 854 855 856 857 857 858 857 857 857 858 858 858 857 857 858 859 859 859 859 860 860 860 860 860 860 860 861 861 861 860 860 860 860 860 861 860 860 858 857 856 856 856 856 855 854 853 852 851 849 848 847 845 844 843 843 843 842 841 839 838 836 832 829
844 844 845 845 845 846 846 847 847 847 847 848 849 850 850 850 850 850 851 852 852 853 855 856 857 857 857 858 857 857 858 858 858 857 857 856 857 857 858 858 858 858 858 858 859 859 859 858 858 859 859 859 859 859 859 859 859 859 859 857 856 855 855 854 854 854 853 852 851 849 847 846 845 843 842 841 840 840 839 838 838 836 834 831 829
846 846 848 848 848 848 849 850 851 850 850 850 851 852 852 852 852 851 851 853 854 853 854 856 857 857 858 858 858 858 858 858 857 857 856 856 856 856 857 857 857 857 857 857 857 857 857 857 857 857 858 858 858 858 858 857 857 857 857 857 855 854 853 853 852 852 851 850 849 848 846 844 843 841 840 839 838 837 836 835 835 834 832 829 828
848 849 851 851 850 850 851 852 852 852 852 852 853 853 853 853 853 853 853 854 855 854 855 857 858 858 858 858 859 859 858 857 857 856 856 856 856 856 856 856 856 857 856 857 857 856 856 857 857 857 857 857 857 857 856 856 856 856 856 855 854 853 852 851 850 850 849 848 847 845 844 842 841 839 838 837 836 835 834 833 832 832 830 828 826
850 850 852 852 852 852 852 852 853 853 854 854 855 855 854 854 855 855 856 856 856 856 858 859 859 858 858 858 859 859 857 856 856 856 857 857 857 857 856 856 856 857 857 857 857 857 857 857 857 857 857 857 856 856 856 855 855 854 854 853 853 852 851 849 848 848 847 846 845 843 842 841 839 838 836 835 834 833 832 832 831 829 828 827 826
852 852 853 853 853 854 854 853 854 855 855 856 857 857 856 856 857 858 858 858 859 859 860 860 859 858 857 858 858 858 857 856 857 857 857 857 857 857 857 857 857 858 857 858 858 857 858 858 858 857 856 856 855 855 854 854 853 853 853 852 851 850 849 847 846 846 845 845 843 842 841 839 838 836 835 834 833 832 831 830 829 828 826 825 824
854 854 855 854 854 855 855 854 855 855 856 857 857 857 857 857 857 857 858 858 859 859 859 858 858 857 857 857 858 858 858 858 858 858 858 858 858 858 858 858 858 858 859 859 859 858 858 858 857 856 855 855 854 853 853 852 852 852 851 850 849 848 847 846 845 845 844 843 842 841 839 838 837 836 835 834 833 831 830 829 827 826 825 823 822
855 855 855 855 855 855 856 856 855 855 855 856 856 856 858 857 856 857 858 858 858 857 857 857 857 857 857 858 858 859 859 859 859 859 858 859 859 858 859 859 859 859 859 859 858 857 857 856 856 855 854 854 853 852 851 850 850 849 849 848 847 846 845 845 844 844 843 842 840 839 838 837 836 835 834 833 832 830 829 828 826 825 823 821 820
856 856 856 856 856 856 856 856 856 855 855 855 855 856 858 858 857 857 858 858 858 857 857 857 857 858 858 858 859 859 859 860 860 860 859 860 859 859 859 859 859 859 859 858 858 857 856 855 854 853 853 852 851 850 849 848 848 847 846 846 845 844 844 843 843 842 841 840 839 838 836 835 835 834 833 832 831 829 828 826 825 823 822 820 818
857 857 857 857 857 857 857 856 856 856 856 856 856 857 858 858 858 858 858 858 858 858 857 857 858 858 859 859 859 859 859 860 860 860 860 860 860 860 859 859 859 859 859 858 857 856 855 854 852 851 850 849 848 847 847 846 846 845 844 844 843 843 843 842 842 841 840 839 838 836 835 835 834 833 832 831 829 828 827 826 824 823 821 820 818
857 857 858 858 858 858 858 857 857 857 857 857 857 857 858 858 858 858 858 858 858 858 858 858 858 859 859 859 859 859 859 860 859 859 859 859 859 859 859 858 858 858 858 857 856 855 854 852 850 850 849 847 847 846 845 844 844 844 843 843 842 842 841 840 839 839 838 838 837 836 835 834 833 832 831 830 828 827 826 825 824 822 821 819 817
858 858 858 858 858 859 858 858 858 858 858 858 858 858 859 859 858 858 858 858 858 858 858 858 859 859 859 860 860 860 860 859 859 859 858 858 857 857 857 857 856 856 856 855 853 852 851 850 849 848 847 846 846 845 844 843 843 842 842 841 841 840 839 839 838 837 837 837 836 835 834 833 832 831 830 829 827 826 826 824 823 821 820 818 816
858 858 858 858 859 859 858 859 859 859 859 859 858 858 858 858 858 858 858 858 858 858 858 858 858 859 859 859 859 859 859 859 858 858 858 857 857 856 856 856 855 854 854 853 852 851 850 849 848 847 846 846 845 844 843 842 842 841 841 840 840 839 838 838 837 836 836 836 835 834 833 832 831 830 829 827 826 825 824 823 822 820 819 817 814
858 858 858 859 859 859 859 859 859 859 859 859 859 858 858 858 858 858 858 858 858 858 858 858 858 858 858 859 859 858 858 857 857 857 856 856 856 855 855 855 854 853 853 852 851 850 849 848 847 846 846 845 844 843 842 841 841 840 840 839 839 838 837 837 836 836 836 835 834 833 833 832 830 829 828 827 825 824 823 821 820 819 817 815 813
858 858 859 859 860 860 860 859 859 859 859 859 858 858 857 857 857 858 858 858 858 858 858 858 858 858 858 858 858 858 857 856 856 856 855 854 854 853 853 853 852 852 851 851 850 850 849 848 847 846 845 844 843 842 842 841 841 840 839 839 838 837 837 836 836 836 835 834 833 833 832 831 829 828 827 826 824 823 821 820 818 817 815 813 811
859 859 859 859 859 860 860 860 860 860 859 859 859 858 857 857 856 856 857 857 857 858 858 858 858 858 858 858 857 857 856 856 855 855 854 853 852 851 851 851 851 851 850 850 850 849 848 847 846 845 844 844 843 842 842 841 841 840 839 839 838 837 836 836 835 835 834 833 832 831 830 829 828 827 826 825 823 822 820 818 817 815 813 811 809
860 860 859 859 860 860 860 860 860 860 860 860 859 858 858 857 857 856 856 856 856 857 857 857 857 858 857 857 856 856 855 855 854 854 853 852 851 850 849 849 849 849 849 849 849 849 848 847 846 845 844 844 843 842 842 841 841 840 839 838 837 836 836 835 834 833 832 831 831 830 829 828 828 827 826 824 822 821 819 817 815 813 812 810 808
860 860 860 860 860 860 860 860 860 860 861 861 860 859 859 858 858 857 857 856 856 856 856 856 856 856 856 856 856 855 855 854 853 853 852 851 851 850 849 849 849 848 848 848 848 848 847 846 845 845 844 844 843 842 842 841 840 839 838 837 836 835 835 834 833 832 831 830 830 829 829 828 827 826 825 823 821 820 818 816 814 812 810 809 807
860 860 860 860 860 860 860 860 860 860 861 861 860 860 859 859 858 857 857 857 856 856 856 856 856 855 855 855 855 855 855 854 854 853 852 852 851 851 851 850 850 849 848 848 847 847 846 846 845 844 843 843 842 841 841 840 839 839 838 837 836 835 834 833 832 831 830 830 829 828 828 827 826 825 823 821 820 819 817 815 814 811 810 808 806
860 860 860 860 860 860 859 860 860 860 860 860 860 860 859 859 858 857 857 857 856 856 856 856 856 856 855 854 854 854 854 854 853 853 852 852 851 851 851 851 850 849 849 848 847 847 846 845 845 844 843 842 841 841 840 839 838 838 837 836 835 834 833 832 831 831 830 829 828 827 827 826 824 823 822 820 819 817 816 814 812 810 808 807 805
859 859 859 859 859 859 859 859 859 859 859 859 859 859 858 858 858 857 856 856 856 856 855 855 855 855 855 854 855 855 854 853 852 851 851 851 851 851 851 850 850 849 848 848 847 847 846 845 844 844 843 842 841 840 839 839 838 837 836 835 834 833 832 831 830 830 829 828 827 826 825 824 823 822 820 819 817 816 814 813 810 808 806 805 803
858 858 858 859 859 859 859 859 858 858 858 858 858 858 858 857 857 856 856 855 855 855 855 854 854 854 854 855 855 855 854 853 852 851 851 851 851 851 850 850 849 849 848 847 847 846 846 845 844 843 843 842 841 841 840 839 838 837 836 835 833 832 831 830 829 828 827 827 826 825 824 822 821 820 819 818 816 814 812 811 809 807 805 803 802
857 857 857 857 858 858 858 858 858 858 857 857 857 857 857 857 856 856 855 855 854 854 854 854 854 854 854 854 854 855 855 854 853 852 851 851 850 850 850 849 849 848 847 847 846 846 845 845 844 843 843 842 841 840 839 838 837 836 835 834 832 831 830 829 828 827 826 825 824 824 822 821 820 819 818 816 815 813 812 810 808 806 804 802 800
856 857 857 857 857 857 857 857 857 857 857 857 857 856 856 856 856 855 855 854 854 854 853 853 853 854 853 853 854 855 856 855 853 852 851 851 850 850 849 849 848 848 847 847 846 846 845 844 844 843 842 841 841 840 839 838 837 835 834 833 831 830 829 828 827 827 826 825 824 823 822 821 819 818 816 815 814 813 811 809 807 804 802 800 797
855 856 856 856 856 856 856 856 856 856 857 857 857 856 856 856 855 855 855 854 854 854 853 853 853 853 852 852 853 855 855 854 853 852 851 851 850 849 849 848 848 847 847 847 846 846 845 844 844 843 842 841 840 839 838 837 836 835 833 832 831 830 829 828 827 826 825 824 823 822 821 820 818 817 816 814 813 811 809 807 805 803 800 798 795
854 854 855 855 855 855 855 855 856 856 856 856 856 856 855 855 855 855 855 855 854 854 853 853 853 853 852 852 853 854 854 853 852 852 851 850 850 849 849 848 848 847 847 846 846 846 845 844 843 843 842 841 840 839 838 837 836 835 833 832 831 830 829 827 826 825 824 823 821 820 819 818 817 815 814 812 811 809 807 805 803 801 798 796 794
852 853 853 854 854 854 855 855 855 855 855 855 855 855 855 855 855 855 855 855 855 854 854 853 852 852 852 852 852 853 853 852 852 851 851 850 850 849 849 848 848 847 847 846 846 845 845 844 843 842 841 840 839 838 838 837 836 834 833 832 830 829 828 826 825 824 822 821 819 818 817 816 815 813 811 809 808 806 804 802 800 798 796 794 792
851 851 852 852 853 853 853 853 854 854 854 855 854 855 855 856 856 856 856 855 855 854 854 853 852 853 853 853 852 852 852 852 851 851 851 850 850 849 848 848 847 847 846 845 845 844 843 843 842 841 840 839 838 838 837 836 835 834 833 831 830 828 827 826 824 823 821 820 818 817 815 814 812 811 809 807 806 804 801 799 797 795 793 792 789
850 850 850 851 852 852 852 852 853 853 854 854 854 854 855 856 856 856 856 855 855 855 854 854 853 853 853 853 852 852 852 852 851 851 850 850 849 849 848 847 847 846 845 844 843 842 842 841 840 839 839 838 837 836 835 834 833 832 831 830 829 828 826 824 823 821 820 819 817 816 814 812 810 809 807 805 803 801 799 797 794 792 790 788 786
849 849 850 850 850 851 851 851 851 852 853 854 854 854 855 855 855 855 856 855 855 855 854 854 853 853 852 852 852 852 852 851 851 850 849 849 848 848 847 846 846 845 844 843 842 841 840 840 839 838 837 836 835 834 833 832 831 830 829 829 827 825 823 821 821 820 819 818 816 815 813 811 808 806 804 802 800 798 796 794 791 789 787 785 783
848 848 849 849 850 850 850 850 851 852 853 853 854 854 854 854 854 855 855 855 855 854 854 853 853 852 852 852 852 851 851 851 850 849 849 848 847 847 846 845 844 844 842 841 841 840 839 838 837 836 835 834 833 832 831 830 829 828 828 827 824 822 820 820 819 818 817 816 814 813 811 808 806 804 802 800 798 795 793 791 789 786 784 782 780
847 847 848 848 849 849 849 849 850 851 852 852 853 853 853 853 854 854 854 854 854 854 853 853 852 852 852 852 851 851 850 850 849 848 848 847 846 846 845 844 843 842 841 840 839 838 837 836 835 834 833 832 831 830 829 828 827 826 825 823 820 819 819 818 817 816 814 813 811 810 808 805 803 801 799 797 795 792 790 788 786 784 782 779 777
846 847 847 847 848 848 848 849 850 851 851 852 852 852 852 852 853 853 853 853 853 853 853 853 852 852 852 851 851 850 850 849 848 848 847 846 845 845 844 843 842 841 840 839 837 836 835 834 833 832 831 829 828 827 826 825 825 823 821 818 817 817 816 815 814 813 812 810 808 807 805 803 800 798 796 794 792 789 787 785 783 781 779 776 774
845 846 846 847 847 847 848 849 850 850 851 851 851 851 851 851 852 852 852 852 852 852 852 852 851 851 851 851 850 850 849 848 848 847 846 845 845 844 843 842 841 840 839 837 836 835 834 832 831 830 829 827 826 825 824 823 822 820 817 815 815 815 813 812 811 810 809 807 805 802 800 799 797 794 792 790 788 786 783 781 780 778 775 773 770
Wind_Speed
16 16 16 15 14 13 13 13 13 12 12 12 12 11 10 9 9 8 7 7 7 7 7 7 7 7 7 6 6 5 5 5 5 5 5 5 5 5 4 4 5 5 5 5 5 4 4 4 5 5 5 6 6 6 6 6 6 6 6 6 6 6 5 6 8 8 9 9 9 10 9 9 8 7 8 10 9 10 11 10 11 12 12 12 14
16 15 15 15 15 14 13 13 12 12 12 13 13 12 11 10 9 9 8 8 8 8 8 8 7 7 7 7 6 6 6 6 6 6 5 5 6 6 6 6 6 5 5 5 5 5 5 5 5 5 5 5 6 7 7 7 7 7 6 6 7 7 5 6 8 9 9 9 10 10 9 8 9 8 9 10 10 11 11 12 12 12 12 13 14
15 15 14 14 14 14 13 12 12 12 12 13 13 13 12 12 11 10 10 10 9 9 9 8 7 7 7 7 6 7 6 7 7 6 6 6 6 6 6 5 6 6 6 5 5 5 5 5 5 5 5 5 5 6 7 6 7 7 7 7 7 8 7 6 7 9 10 10 11 11 10 9 9 9 9 10 10 11 11 12 13 13 13 14 15
12 12 12 12 12 12 11 11 11 12 12 12 13 13 13 12 12 11 11 11 10 10 10 9 8 8 8 7 8 8 8 7 7 7 7 6 6 7 6 6 7 6 6 6 6 6 6 6 6 5 5 5 6 6 6 6 6 7 7 7 6 7 7 7 7 8 10 11 11 11 11 11 10 9 10 11 11 11 11 12 13 14 14 15 15
9 9 9 9 9 10 10 10 10 11 11 11 11 12 12 12 12 11 11 12 11 11 10 10 9 9 9 8 8 9 9 8 8 8 8 7 7 7 7 7 7 7 7 7 7 7 7 7 6 6 6 6 6 7 6 5 6 7 7 7 7 7 7 8 8 8 10 11 12 12 11 11 11 10 11 11 12 13 12 13 13 13 14 15 16
11 12 12 11 11 10 9 10 10 11 11 11 11 12 12 12 12 12 11 12 12 12 11 11 10 10 10 10 9 9 9 9 8 8 9 8 8 8 8 8 8 8 8 8 8 8 7 7 7 7 7 7 7 7 6 6 7 8 7 7 8 8 8 9 9 9 10 11 11 12 12 11 11 12 11 11 12 13 13 13 13 13 14 16 17
14 15 17 16 16 14 11 9 9 10 10 11 11 12 12 13 13 12 11 11 12 13 12 12 11 11 11 11 11 10 10 10 9 9 10 9 9 9 9 9 9 9 9 8 8 9 8 8 8 8 8 8 7 7 7 7 7 7 7 7 8 8 9 9 9 9 10 10 11 12 12 12 13 13 13 12 12 12 12 13 13 14 14 15 16
15 16 19 19 18 17 15 13 11 11 12 12 12 11 11 12 12 11 11 11 12 13 13 13 12 12 12 11 11 11 10 11 11 11 11 11 10 10 10 10 10 10 9 9 9 9 9 9 9 9 8 8 7 8 7 7 7 7 8 8 8 9 10 10 10 10 10 11 11 12 12 13 13 14 14 13 12 12 12 12 14 15 16 16 17
17 17 20 22 20 19 19 18 16 16 16 15 14 13 12 11 11 11 11 11 11 12 13 13 12 12 11 11 11 11 11 11 12 12 11 11 10 11 11 11 11 10 10 10 9 9 9 10 10 9 7 7 8 9 9 9 9 9 9 9 9 10 10 10 11 11 11 11 12 12 13 13 13 14 14 13 13 14 13 13 14 15 17 18 18
20 20 22 24 23 21 21 20 20 20 20 19 18 17 13 10 10 11 11 11 12 12 11 12 12 11 11 11 11 12 12 11 12 13 12 11 10 10 10 10 10 10 10 10 10 10 10 10 9 8 9 10 10 10 9 9 9 10 10 10 10 10 10 11 11 11 11 12 12 13 13 14 14 14 15 15 15 15 14 14 15 16 17 18 18
18 20 22 22 20 20 21 21 20 19 20 20 20 19 17 14 13 11 10 11 12 12 12 12 12 12 12 12 12 12 11 10 12 13 13 13 12 11 10 11 11 11 11 11 10 10 10 10 9 9 9 10 9 7 8 9 9 9 10 11 11 11 11 11 11 11 12 13 13 14 14 15 15 15 16 17 16 16 16 16 16 17 17 16 16
15 16 18 18 15 16 19 20 18 17 17 16 17 17 17 17 16 12 10 11 12 12 12 12 12 12 12 12 13 12 9 10 12 14 14 14 13 13 12 12 12 12 11 11 10 10 10 9 10 9 8 9 9 8 8 10 10 10 10 10 12 12 12 13 12 12 12 13 14 15 16 17 17 17 18 18 17 17 17 17 17 18 18 17 17
14 14 15 16 14 14 16 17 18 17 16 15 14 14 14 16 16 13 11 12 13 12 11 11 10 11 11 11 11 9 7 10 13 13 13 13 13 13 13 13 13 13 12 11 11 10 9 9 9 9 8 8 8 8 8 8 10 11 11 11 11 12 12 13 13 14 14 15 15 17 17 17 18 18 18 17 17 18 18 19 19 19 19 19 19
8 8 9 11 11 12 14 14 14 15 14 14 14 14 15 15 15 15 13 13 13 12 11 10 10 10 10 9 9 7 6 9 10 10 11 11 11 12 12 12 13 13 13 13 12 11 9 8 8 8 7 6 6 6 6 7 8 9 10 11 11 11 12 14 15 15 15 15 16 17 18 17 18 18 18 16 17 18 19 19 20 20 20 20 20
12 10 10 9 7 7 8 9 9 8 9 11 14 15 15 14 15 15 14 13 13 12 10 9 9 9 9 9 9 8 7 8 8 8 9 9 9 9 9 9 10 11 11 11 10 10 9 8 8 7 6 5 7 9 8 8 8 9 10 11 12 12 13 15 16 15 15 15 16 18 18 18 18 18 18 17 18 19 19 19 20 20 20 20 20
16 14 14 14 13 11 9 9 8 6 5 6 10 12 12 11 12 14 14 13 11 9 9 8 8 8 9 9 8 8 7 7 7 7 8 7 7 6 5 6 7 7 7 7 7 6 6 5 6 6 4 6 9 11 11 10 9 9 10 12 12 13 14 15 16 16 17 17 17 18 19 20 20 21 21 21 22 22 21 20 20 19 19 20 20
18 17 15 14 14 13 12 10 8 7 8 8 8 9 8 8 9 10 12 12 9 7 8 8 7 6 6 6 6 6 6 6 6 6 7 6 6 5 4 6 6 6 6 5 4 4 4 4 4 3 3 5 8 10 10 10 9 9 11 12 12 13 14 14 14 16 17 17 18 20 21 21 21 21 21 21 21 20 19 19 18 18 19 19 19
17 17 16 14 13 13 11 9 9 8 8 7 7 7 5 7 9 8 8 7 6 6 7 7 6 5 5 4 5 5 3 3 4 5 6 7 7 6 5 7 7 6 6 5 5 5 5 5 5 4 5 7 9 10 10 9 8 10 12 13 14 15 15 14 13 14 15 16 19 21 22 21 21 21 21 21 20 17 17 18 18 18 19 19 19
16 17 16 14 13 12 11 10 9 9 9 9 9 8 6 6 7 7 6 6 5 5 6 6 6 6 5 5 5 4 3 1 2 3 4 5 7 7 7 7 9 9 7 7 7 6 5 4 4 5 7 8 9 9 9 9 8 10 12 14 14 14 13 13 13 14 15 17 19 21 21 21 20 20 21 20 19 17 17 18 17 17 19 20 20
14 14 13 12 12 12 12 10 9 9 10 9 8 8 7 6 7 8 7 6 7 8 8 7 7 6 6 6 6 5 4 3 2 1 1 2 4 6 6 7 8 8 7 7 7 7 6 4 2 3 5 6 7 7 8 9 9 9 10 11 12 13 13 14 15 16 17 18 19 20 20 19 19 18 18 17 16 16 17 17 16 16 17 19 20
12 11 9 9 10 11 11 10 9 9 9 9 9 9 8 7 7 7 6 6 7 8 7 7 6 6 5 6 6 6 5 4 5 5 4 3 2 2 2 3 4 4 5 7 8 7 5 4 2 3 5 5 6 7 7 8 9 9 9 9 11 13 15 16 17 17 17 17 17 17 17 17 16 16 15 15 14 14 14 15 16 17 18 18 19
11 11 9 9 9 9 8 9 10 9 9 9 9 9 10 9 7 6 6 8 8 7 4 4 6 6 6 6 6 6 5 4 4 4 4 4 4 3 3 3 4 1 3 5 5 4 3 2 3 6 6 5 6 7 7 8 9 10 10 11 12 13 15 16 17 16 15 15 15 15 15 15 15 15 14 13 12 12 13 13 14 16 18 20 20
10 9 8 9 9 8 8 9 9 8 8 8 8 8 9 8 8 6 5 7 9 9 8 7 6 7 7 6 6 7 6 6 5 5 4 3 3 2 2 2 3 1 2 3 2 2 2 3 6 8 7 7 8 9 9 10 11 11 12 13 13 14 15 16 16 14 13 13 14 14 14 13 13 13 12 12 12 13 14 14 15 15 17 19 20
10 9 7 8 8 7 7 7 7 7 7 7 7 7 7 7 6 6 4 4 6 7 7 5 5 5 5 5 6 6 6 6 5 5 4 4 4 3 2 1 1 1 1 2 3 3 4 6 9 10 10 11 12 12 13 13 13 13 13 13 14 15 15 14 12 11 12 13 13 12 12 12 11 11 11 12 13 14 15 15 15 15 16 16 17
9 8 7 7 7 6 6 6 6 6 6 5 6 6 6 6 5 4 3 3 3 3 4 4 3 3 3 4 4 4 4 3 3 4 4 4 4 3 2 1 0 1 1 3 5 7 8 10 12 12 13 13 14 15 15 15 16 16 15 15 15 14 12 10 9 10 12 12 12 12 12 11 10 10 11 12 13 13 13 13 14 14 15 16 16
8 7 7 7 6 5 5 5 5 6 6 4 4 4 4 4 4 3 2 2 2 2 2 2 2 3 3 3 3 3 2 2 2 4 5 5 5 5 5 3 3 3 3 5 8 9 11 12 12 13 14 14 14 15 15 14 16 17 15 14 13 11 9 9 10 11 11 12 12 12 11 11 10 11 12 12 12 12 12 13 15 15 15 16 17
6 6 6 6 5 4 4 4 4 4 4 3 3 3 2 2 2 2 2 2 1 1 1 1 1 1 2 2 2 2 2 2 3 4 5 5 5 5 5 5 5 5 4 5 8 10 11 12 13 13 13 12 12 12 12 12 12 12 11 10 10 9 9 10 11 11 11 11 11 11 11 11 11 11 11 11 11 11 11 13 14 14 15 16 17
5 5 4 4 4 4 3 3 3 3 3 3 3 3 2 2 2 3 3 3 2 1 1 1 2 1 1 1 1 2 2 3 4 5 6 6 5 5 5 5 6 5 5 7 9 10 11 11 11 10 9 9 9 9 9 8 8 8 9 9 9 10 11 11 11 10 10 9 10 10 10 11 11 11 11 11 11 11 11 12 13 14 15 15 16
5 4 4 3 3 3 3 3 3 2 2 3 2 2 3 2 2 4 4 2 1 2 2 2 2 2 2 1 1 0 1 3 4 4 5 6 6 6 6 7 8 8 8 10 12 12 10 9 8 8 7 7 7 7 7 7 8 8 9 9 9 10 10 10 10 9 9 8 9 10 10 10 11 11 11 11 11 11 11 11 12 13 13 14 15
4 4 3 4 3 3 3 3 3 2 2 2 2 2 2 1 1 2 1 1 1 3 3 1 1 1 2 3 2 2 1 2 3 4 5 6 6 6 6 7 9 10 10 11 12 11 8 8 7 7 6 7 7 7 7 7 8 9 8 9 9 9 9 8 8 9 8 8 9 10 10 11 12 12 12 12 12 12 12 12 12 12 13 14 16
4 4 4 4 3 2 2 3 2 2 2 2 1 1 1 1 1 0 1 1 2 3 3 3 3 3 2 2 3 4 5 5 6 6 7 7 8 8 8 8 8 9 10 10 10 9 8 8 8 7 7 8 8 8 8 8 8 9 9 9 9 8 8 8 8 9 9 10 10 10 10 11 12 12 12 13 13 14 14 13 13 14 14 15 16
3 3 4 4 3 2 1 2 2 2 2 2 1 1 1 1 1 0 2 1 2 4 5 4 3 2 2 2 1 3 6 6 7 8 9 11 11 12 12 11 10 10 10 10 9 8 8 8 8 8 8 9 8 8 9 9 9 9 10 10 10 9 9 9 9 10 11 11 11 11 11 12 13 13 13 14 14 15 15 14 14 15 15 16 16
3 3 3 3 2 1 1 1 1 2 2 2 2 2 2 1 1 1 1 2 1 1 3 3 2 2 3 3 3 4 7 8 9 11 12 13 14 15 15 13 12 11 11 10 8 8 8 8 8 8 9 9 9 10 10 10 10 10 11 11 11 11 11 11 11 12 13 13 13 13 14 14 14 14 15 16 16 16 16 15 15 15 15 16 16
3 2 2 2 1 1 1 1 1 1 1 2 2 2 2 2 2 2 2 1 1 1 2 3 3 4 4 4 5 6 8 9 11 12 13 13 13 14 15 14 11 10 9 8 8 9 9 9 8 8 9 9 9 10 10 10 11 11 11 12 12 12 12 12 13 14 14 14 13 14 15 15 16 17 17 17 17 17 17 17 16 16 16 16 16
1 1 2 2 1 1 1 1 1 1 1 1 2 2 2 2 2 2 2 2 2 2 3 3 3 5 7 6 6 7 9 10 11 11 10 11 12 11 10 9 8 6 6 7 7 8 8 9 9 9 9 9 9 10 10 10 11 11 12 12 12 12 13 13 13 14 14 14 13 13 15 17 18 19 19 19 18 19 18 18 18 17 17 17 17
1 1 1 1 1 1 2 1 2 2 2 2 3 3 2 2 3 3 3 3 3 3 2 2 3 6 9 8 6 8 10 11 10 8 7 7 7 6 6 6 6 5 6 6 6 7 8 8 9 9 9 10 10 10 10 10 11 11 12 13 13 14 14 14 14 14 14 14 14 16 18 20 21 21 21 20 20 19 19 19 19 18 18 18 18
0 0 1 1 1 2 2 2 2 2 3 3 3 3 3 3 3 3 3 3 3 3 3 3 3 5 6 4 4 8 11 11 10 7 6 7 7 4 5 6 6 6 6 6 6 7 8 8 9 9 9 10 10 10 11 11 11 12 13 13 13 14 14 14 15 16 16 17 19 19 20 20 21 21 21 21 21 20 20 20 20 20 20 19 19
1 0 1 1 2 2 2 2 2 3 4 4 3 3 3 3 3 3 4 3 3 4 4 4 4 4 4 2 3 6 9 11 9 7 5 6 5 4 5 6 6 6 7 7 7 7 8 8 9 9 9 10 11 12 12 13 13 13 14 14 14 15 15 16 16 16 16 17 19 20 20 20 20 20 21 21 21 21 21 21 21 21 21 21 20
3 3 3 3 3 3 3 3 3 4 4 4 4 4 4 4 4 4 5 5 4 5 5 4 4 4 4 3 4 6 8 9 8 6 5 5 5 5 6 6 7 7 8 8 8 8 9 9 9 10 10 11 12 12 13 14 14 14 15 15 16 16 16 17 16 16 16 17 18 19 19 20 20 20 21 22 22 22 22 22 22 22 22 23 23
4 4 2 2 2 3 3 4 4 4 4 4 4 4 5 5 5 5 5 5 5 5 5 5 5 4 4 4 4 5 7 9 8 7 7 6 6 6 7 7 7 8 9 9 10 10 10 11 11 12 12 13 13 13 14 14 15 15 15 16 16 16 17 17 17 17 18 18 18 19 19 19 20 20 21 21 21 22 22 23 23 23 24 24 24
5 4 3 3 3 3 4 4 4 4 4 4 5 5 5 5 6 6 6 6 5 5 5 5 5 4 4 5 7 8 9 10 9 8 7 7 7 8 8 8 8 9 10 10 11 11 12 12 13 13 14 14 14 15 15 16 16 16 16 16 16 17 17 17 17 17 17 17 18 19 19 19 19 20 20 21 22 22 23 23 24 24 24 24 24
5 5 5 5 4 4 4 4 4 4 4 5 6 6 6 6 6 6 6 6 6 6 6 6 6 5 4 6 8 10 10 10 9 9 8 8 8 9 9 9 9 10 10 11 11 12 12 13 13 13 14 15 15 16 16 16 16 17 17 17 17 17 17 17 17 18 19 19 20 21 21 21 21 22 23 23 23 23 23 23 23 24 25 25 26
7 6 6 5 5 5 5 4 4 4 5 5 5 5 6 6 6 7 7 7 7 8 8 8 7 6 6 6 8 10 9 9 9 8 9 9 9 9 10 10 10 10 11 11 11 12 12 13 13 14 14 15 15 16 16 16 16 17 17 18 18 19 20 20 20 21 21 22 22 22 22 22 22 23 24 25 24 24 24 24 23 24 24 24 25
7 7 7 6 6 6 5 5 5 5 5 5 5 5 6 7 7 7 7 8 8 8 9 8 8 8 8 8 8 8 8 8 8 8 9 9 10 10 10 10 11 11 12 12 12 12 13 13 14 14 14 14 14 15 15 15 16 16 17 17 18 18 19 20 21 21 22 22 22 22 21 21 22 23 23 24 25 24 24 24 23 24 24 24 24
8 7 7 6 6 6 6 5 5 5 5 6 6 6 6 7 7 8 8 8 9 9 9 9 9 9 9 9 9 8 8 8 9 9 9 10 10 10 11 11 11 12 12 13 14 14 14 14 14 15 15 15 15 15 15 15 15 16 17 17 17 18 18 19 19 19 19 20 20 21 21 21 22 22 22 23 23 24 25 25 25 25 25 25 26
7 6 6 6 6 6 5 5 5 5 5 6 6 6 7 7 8 8 9 9 9 9 9 9 9 9 9 9 9 9 9 9 9 9 9 10 10 11 11 11 12 12 13 14 15 14 14 14 15 15 16 16 16 16 16 16 16 16 16 16 17 18 17 16 16 16 16 17 18 19 20 21 21 22 22 23 23 24 25 26 26 27 27 26 27
7 6 6 6 6 6 6 5 5 5 5 6 6 7 7 8 8 8 9 9 9 9 9 9 9 9 9 9 9 9 9 9 9 10 10 10 10 11 11 11 12 12 13 13 14 14 14 14 15 15 16 16 17 17 17 16 16 16 16 16 17 17 16 16 17 16 16 17 19 21 22 24 24 24 24 23 23 24 26 25 24 25 25 25 26
7 7 7 6 6 6 6 6 5 5 6 6 7 7 8 8 8 9 9 9 9 9 9 9 9 8 9 9 9 9 9 9 9 10 10 10 11 11 11 11 12 12 13 13 13 14 14 15 15 16 17 17 17 17 17 17 17 16 16 16 16 17 18 19 21 21 22 24 26 26 25 25 25 25 24 24 24 25 27 26 25 24 24 24 25
7 7 7 7 7 7 6 5 5 6 7 7 7 7 8 8 8 8 8 8 9 9 8 8 8 8 8 8 8 9 9 9 9 10 10 10 10 11 11 12 12 13 13 13 14 14 15 15 15 16 16 17 17 17 17 18 17 17 16 16 17 19 21 21 23 26 29 29 26 23 23 24 24 24 25 25 25 25 26 27 26 25 24 24 25
7 7 6 6 6 6 5 5 6 6 7 6 7 7 7 7 7 7 8 8 8 8 8 8 8 8 8 8 8 8 9 9 9 9 9 10 10 10 11 12 12 12 13 13 13 14 14 14 15 15 15 16 16 16 17 17 17 17 17 18 20 23 25 26 28 30 29 25 22 22 23 24 25 25 26 26 25 25 26 27 26 25 25 25 26
7 7 6 6 6 5 6 6 6 7 6 6 6 6 6 7 7 7 7 7 7 8 8 7 7 7 7 7 8 8 8 8 8 9 9 9 9 10 10 11 11 12 12 12 13 13 13 13 14 14 15 15 15 16 16 17 17 19 22 24 25 26 27 27 27 28 27 27 28 28 26 24 25 26 26 26 26 25 26 27 27 26 26 26 27
Wind_Direction
206 207 211 212 212 211 211 213 216 220 221 219 220 222 223 223 223 220 216 216 219 218 217 216 215 217 220 219 213 204 201 207 211 214 224 231 240 247 237 232 244 246 248 254 262 266 266 268 274 276 278 280 284 287 287 286 284 286 293 299 300 301 305 304 303 306 309 309 312 313 320 326 325 327 329 324 327 333 330 328 327 324 323 323 323
202 204 207 210 212 213 214 214 214 218 220 218 219 221 222 222 224 225 224 222 220 219 217 216 215 216 221 221 220 216 206 209 216 219 227 234 240 244 234 226 237 244 247 249 253 257 260 265 271 269 265 266 273 279 281 285 288 293 298 303 307 310 313 310 309 310 311 313 314 313 317 323 321 324 325 321 325 327 325 327 325 322 322 322 320
198 200 201 205 209 212 215 215 215 217 219 219 218 218 220 220 219 223 229 228 221 216 214 214 210 212 220 219 216 220 217 214 218 219 223 231 239 247 243 232 237 244 246 248 248 249 252 258 264 264 263 266 272 277 281 284 288 293 295 297 299 303 307 306 303 306 309 312 312 311 316 321 317 317 318 318 320 321 322 324 323 320 319 319 318
196 197 200 203 206 210 214 216 219 221 221 221 221 221 221 220 219 222 228 230 224 214 210 211 207 207 218 220 215 218 221 221 224 223 223 228 234 242 245 241 244 246 248 252 252 251 253 257 259 259 264 270 273 274 276 279 284 287 287 290 292 295 300 299 296 300 302 304 306 309 313 313 309 311 315 316 317 318 318 318 319 319 316 316 316
186 185 189 194 195 201 208 213 220 225 226 227 228 228 228 227 226 226 229 232 229 217 209 209 208 210 218 221 218 217 218 223 229 230 228 228 230 235 237 237 240 243 246 248 249 251 253 255 257 259 261 264 267 270 274 281 286 286 287 292 295 296 298 295 294 295 296 299 303 305 304 303 304 308 310 311 314 317 317 315 316 317 315 315 315
188 191 195 194 192 197 206 214 219 221 225 230 230 231 232 231 230 229 229 232 231 224 217 214 213 215 219 223 223 220 220 223 228 233 236 235 233 235 236 234 235 238 240 241 240 241 245 250 254 256 258 262 268 273 278 281 282 284 289 294 295 296 295 293 293 293 292 294 296 298 300 302 303 305 306 307 309 312 315 313 312 314 314 314 314
190 202 210 207 204 205 204 208 214 214 217 221 223 226 229 229 231 232 229 228 228 226 224 222 221 220 222 225 227 225 224 225 225 229 236 239 238 238 239 237 235 235 236 236 237 237 238 243 247 248 252 258 265 270 274 277 279 283 287 290 292 293 293 292 292 292 291 290 291 294 297 300 300 302 304 302 298 300 307 308 308 310 312 311 312
197 202 209 208 208 212 214 215 214 210 209 212 216 219 222 224 227 229 230 228 227 227 227 226 225 225 225 225 226 225 225 226 226 226 231 237 240 240 239 240 240 239 239 239 239 240 241 242 245 248 248 249 256 267 272 276 281 282 283 286 288 289 289 290 290 289 288 289 291 293 295 297 296 298 302 304 301 302 306 306 305 307 309 311 311
205 203 207 211 216 224 228 229 226 219 216 218 222 223 221 222 223 222 224 228 230 230 230 229 227 226 225 223 222 224 225 227 225 221 223 230 238 242 242 242 243 243 244 244 244 244 244 245 247 246 246 250 259 267 270 271 274 277 280 284 286 286 286 287 287 287 287 288 290 291 292 292 294 299 304 307 306 305 304 304 304 305 308 309 308
206 210 215 222 229 231 231 230 227 225 225 226 230 230 227 224 223 220 220 226 231 230 229 229 227 224 223 220 220 223 227 230 225 220 222 228 236 245 248 249 249 249 249 249 249 247 245 247 249 250 256 265 269 269 268 268 269 272 273 276 279 283 286 286 285 286 288 290 291 292 292 294 298 303 305 305 304 304 304 306 305 305 307 305 304
207 212 219 225 227 226 223 222 223 227 227 227 232 234 233 228 224 220 220 223 227 227 227 228 229 229 226 222 220 223 227 228 224 225 231 236 239 245 249 251 251 250 250 250 250 251 250 249 250 249 253 260 266 272 276 275 274 273 272 270 269 269 270 274 280 284 286 288 289 291 292 294 297 299 300 302 303 304 304 303 301 301 302 300 301
210 213 217 218 217 216 216 216 221 227 228 226 228 231 233 232 226 220 217 221 224 226 227 228 230 232 231 227 226 226 225 224 224 231 242 248 246 245 247 249 248 246 247 248 249 252 254 253 253 252 250 250 255 266 274 277 278 277 274 270 265 261 257 258 262 268 274 281 286 288 289 291 294 295 297 301 303 302 299 296 295 296 295 295 297
212 215 215 213 213 214 213 214 219 224 225 224 224 225 227 227 225 221 216 219 223 225 225 224 225 229 231 232 230 225 222 226 229 238 249 253 252 248 247 247 247 246 244 244 246 250 252 255 258 259 257 256 260 264 265 267 274 279 281 277 270 267 265 264 265 266 268 272 277 280 283 286 288 289 291 295 297 296 294 293 295 295 293 294 295
171 183 189 195 203 208 211 215 219 222 224 223 223 225 224 220 220 222 218 213 214 217 217 216 218 221 221 226 225 216 217 230 235 240 246 247 249 249 247 245 246 247 246 244 245 246 244 246 251 255 257 256 251 251 259 267 271 274 277 275 270 270 274 279 282 281 275 269 269 273 276 279 282 284 287 289 289 290 292 293 295 295 292 293 293
99 104 115 127 142 169 187 195 200 207 218 220 219 220 216 208 206 209 210 207 205 204 202 204 211 214 215 219 216 204 212 231 235 235 238 240 245 248 246 245 248 248 246 242 243 246 245 245 249 250 249 241 236 240 251 266 272 274 276 276 275 274 275 278 280 280 278 272 269 272 275 276 278 282 284 285 284 285 288 289 290 290 290 291 291
82 78 86 95 100 104 114 130 144 145 151 181 195 196 196 193 191 194 197 197 194 193 195 199 206 212 217 221 208 188 198 220 224 226 233 234 236 238 237 241 246 244 240 234 236 243 243 243 250 252 239 235 243 250 258 266 273 279 281 282 284 283 283 283 282 283 287 288 283 282 283 281 281 282 282 282 282 283 286 288 287 285 286 289 289
76 71 69 72 78 83 88 96 103 108 115 122 136 151 164 170 171 178 184 184 182 181 184 189 197 201 208 213 190 166 182 211 215 217 223 219 214 218 229 237 237 233 230 226 225 230 230 233 248 259 240 240 253 265 272 277 282 284 283 286 290 289 289 291 289 287 292 297 299 298 298 297 297 296 293 291 291 289 284 281 282 284 286 288 288
74 73 69 64 66 70 72 72 71 81 91 84 80 90 111 137 148 153 157 160 158 161 165 166 169 172 177 180 167 154 174 233 243 233 229 220 212 216 231 237 236 233 230 228 224 220 223 236 243 239 242 253 264 276 284 289 294 291 289 291 291 290 294 299 299 296 296 298 301 302 303 304 305 304 302 302 304 299 282 273 278 285 286 285 288
79 79 78 79 79 77 74 70 65 66 67 60 56 57 68 106 124 120 118 126 130 141 150 142 132 128 132 141 142 137 146 187 262 262 254 238 225 227 240 245 244 242 235 232 229 216 209 233 250 247 255 267 273 280 287 293 294 293 294 294 291 292 300 306 306 305 302 298 297 297 298 299 298 298 298 300 304 302 288 277 276 280 280 281 285
86 84 83 86 89 88 84 78 67 63 66 68 71 67 59 71 93 100 110 123 131 134 130 123 122 121 122 130 125 115 121 119 87 55 351 273 230 226 237 249 251 250 244 239 239 227 209 210 243 270 277 278 280 288 295 299 301 301 298 295 292 295 302 304 302 301 299 295 293 293 293 293 291 290 290 291 293 293 288 279 271 273 279 283 284
96 92 91 91 89 89 91 88 80 74 70 75 88 90 80 74 84 98 107 115 125 127 113 109 127 136 135 138 124 108 113 107 77 69 68 62 83 176 204 221 228 246 262 257 254 249 223 194 212 289 286 282 287 298 306 308 312 311 303 294 294 296 300 301 301 300 298 295 293 293 294 294 293 291 290 289 287 287 285 279 272 272 277 282 287
102 96 93 92 89 88 94 93 87 80 72 70 78 84 84 87 90 92 101 114 128 140 139 132 138 134 131 137 126 105 102 100 79 68 69 71 80 89 91 116 137 125 301 274 267 279 269 226 282 292 288 293 301 304 309 311 311 309 304 302 304 305 306 307 306 302 298 296 296 296 297 297 297 297 296 296 297 298 297 291 284 279 276 278 282
108 104 97 93 88 84 88 88 81 72 67 66 68 71 78 89 91 88 103 125 134 143 153 158 148 133 126 125 118 102 89 85 83 75 67 62 68 79 82 99 121 92 344 303 291 322 327 302 299 298 301 308 309 308 312 312 307 304 303 303 305 307 309 311 307 298 294 297 298 297 297 298 299 302 306 308 311 313 310 303 296 291 286 283 283
106 105 100 95 89 79 77 80 77 72 63 54 55 64 71 79 80 77 91 122 131 134 142 146 140 135 129 118 110 104 94 89 82 75 73 68 63 66 70 69 170 196 358 341 321 315 303 295 297 301 306 308 307 308 309 309 307 304 301 300 303 307 308 307 300 292 293 295 295 294 297 300 302 307 313 315 313 312 310 305 300 298 295 293 291
103 100 94 91 88 82 78 74 69 71 66 49 41 43 45 58 67 64 69 97 110 118 130 136 134 135 132 120 113 107 103 103 77 44 36 38 39 36 41 44 280 244 268 288 287 286 287 289 293 295 297 298 300 302 302 301 301 301 300 301 303 302 296 290 288 291 292 292 293 296 298 300 303 308 313 315 313 310 308 307 306 306 303 300 298
99 97 93 87 81 76 75 71 64 62 64 62 58 42 25 39 63 68 74 99 107 112 126 143 153 149 136 128 124 110 108 120 93 47 31 22 8 358 356 350 335 329 314 291 290 294 295 296 297 297 296 295 296 296 295 294 295 297 299 300 297 288 278 279 285 287 286 288 291 293 296 301 306 310 311 311 309 308 310 311 310 309 309 308 306
103 103 100 98 93 82 72 67 65 63 59 58 72 71 44 37 74 88 88 87 102 153 166 157 133 128 127 129 138 152 153 128 75 38 26 20 9 0 1 353 344 346 337 309 308 308 304 305 307 305 303 302 299 297 296 294 292 292 294 291 284 277 275 281 284 281 279 283 288 291 297 304 307 308 308 306 305 309 315 317 316 314 315 313 309
110 109 110 110 105 99 93 85 77 70 64 55 52 50 34 21 50 60 54 47 48 50 61 78 71 48 43 94 141 202 174 106 52 18 4 2 359 359 1 351 345 344 325 311 315 315 308 306 308 304 300 300 300 298 293 287 282 284 286 284 283 282 278 277 279 278 276 282 291 296 300 303 304 305 305 304 307 311 314 315 314 313 313 312 308
107 103 106 104 92 89 94 89 80 75 81 87 84 58 27 14 53 59 45 33 86 96 74 61 49 20 8 33 43 241 90 55 22 347 340 344 342 344 343 335 331 332 323 319 325 327 317 303 296 293 292 296 300 299 295 293 292 291 289 287 286 285 282 279 281 282 283 289 294 295 297 299 300 301 301 300 303 305 306 307 306 304 305 303 301
109 105 100 87 72 61 62 66 64 58 64 86 106 94 42 20 90 96 60 336 195 165 160 162 145 72 46 39 19 339 344 350 319 309 318 325 323 325 323 319 319 321 321 324 329 326 312 297 295 297 299 301 303 302 303 306 304 301 300 294 288 286 287 286 286 288 292 295 293 294 299 301 299 299 300 301 302 303 303 301 299 297 298 298 296
107 106 99 86 69 49 41 41 38 35 34 33 60 136 126 90 70 11 293 245 197 184 189 204 208 194 162 77 13 334 309 287 282 291 299 301 304 306 304 306 311 313 320 329 326 311 296 295 301 303 302 302 303 304 306 307 305 305 307 303 298 295 291 290 293 297 298 295 293 296 300 301 300 301 303 304 304 304 302 300 297 295 294 293 294
102 97 97 98 90 68 42 21 5 359 354 351 344 294 215 176 169 334 346 325 200 183 181 186 191 204 215 203 231 310 303 290 288 294 295 295 298 299 297 301 305 308 318 328 321 303 296 300 301 301 302 302 303 305 306 307 307 308 307 304 302 299 296 296 301 301 295 292 293 295 297 299 302 304 305 305 304 301 300 299 299 297 295 293 293
85 80 81 86 85 61 41 13 343 333 330 326 320 306 298 281 224 209 341 333 307 203 201 209 213 250 276 259 245 271 289 293 295 298 299 299 301 299 297 299 301 304 311 317 307 297 298 299 296 297 301 300 301 304 304 303 304 304 302 300 298 296 296 300 300 293 287 285 286 288 293 299 304 306 306 305 303 300 300 300 299 298 297 295 295
78 68 52 44 37 15 11 2 335 324 325 315 300 282 285 304 307 285 257 252 254 250 269 286 300 306 304 290 271 274 286 294 298 301 303 304 302 300 300 303 304 304 307 304 295 291 294 296 296 298 299 298 299 299 298 298 299 298 296 295 293 292 294 298 297 291 287 284 283 286 292 298 303 305 306 304 303 301 301 300 298 298 298 297 296
97 73 36 25 7 341 353 359 341 330 317 291 287 280 262 254 265 264 258 260 259 251 250 257 287 314 321 313 295 293 300 305 308 309 309 306 305 307 313 315 309 299 297 294 288 287 291 293 295 296 296 296 296 295 295 296 296 296 296 296 295 295 294 294 292 292 294 293 292 295 297 298 298 300 300 300 301 301 301 300 299 298 298 297 297
143 132 76 38 359 338 344 345 331 324 313 293 282 277 269 257 249 240 238 244 253 264 261 240 264 305 317 320 324 329 327 325 328 332 331 328 327 323 319 314 303 292 291 288 285 287 290 291 292 294 295 295 296 295 296 297 298 299 300 299 298 297 296 295 296 299 299 296 294 295 295 294 294 295 296 296 297 298 298 299 300 299 299 299 299
285 42 62 34 356 332 317 315 308 298 288 282 278 272 265 261 259 251 241 238 244 262 274 269 270 288 296 304 332 338 331 330 339 351 355 358 1 343 301 298 301 300 297 295 296 299 298 295 295 297 297 297 298 298 298 300 301 301 301 300 299 298 296 298 300 300 296 291 288 289 290 290 291 293 294 294 294 296 297 298 299 299 298 299 298
172 210 229 274 313 309 295 286 279 272 263 254 255 265 266 263 262 258 251 252 259 263 266 264 263 268 271 279 318 327 323 322 328 334 336 340 342 322 299 299 302 300 299 302 306 306 303 300 301 302 301 302 302 301 301 301 300 300 300 300 298 296 294 294 294 292 291 290 288 287 288 289 289 290 292 292 293 294 295 296 297 298 298 299 299
188 222 243 260 274 282 286 281 271 268 267 259 256 263 267 266 267 265 259 255 255 255 258 259 255 260 277 295 310 321 325 322 320 323 323 319 316 313 310 310 308 306 306 309 310 309 307 306 307 308 307 306 304 301 301 300 299 299 300 298 297 296 295 293 292 291 292 292 291 290 289 289 290 291 291 290 291 292 294 295 297 298 298 298 296
189 206 231 263 254 247 263 276 272 266 264 265 264 263 264 265 267 267 265 264 260 258 262 263 261 269 286 285 284 306 320 318 312 311 310 306 305 306 306 306 307 307 307 308 308 308 308 307 307 307 307 306 305 303 303 302 301 300 298 296 295 295 294 293 292 292 292 291 291 292 291 290 290 291 290 290 291 293 296 296 295 295 294 293 293
195 196 196 210 230 240 251 257 259 263 270 277 277 271 264 263 264 264 267 269 269 266 265 264 267 275 278 271 274 288 300 302 299 295 293 293 292 293 293 294 297 298 299 301 302 303 302 302 303 304 303 302 302 303 303 303 303 302 301 300 300 298 298 297 296 297 298 296 295 295 294 293 293 293 293 293 295 295 294 293 292 291 291 290 292
198 198 199 203 212 226 241 246 248 260 268 269 267 265 263 263 265 266 269 272 273 274 272 269 271 271 264 273 290 297 293 288 286 285 284 284 285 285 286 287 288 289 291 294 296 297 298 298 299 299 297 297 298 300 301 302 303 302 302 302 301 299 299 299 297 298 297 295 293 293 292 292 293 292 291 292 293 292 291 290 291 291 291 290 290
197 199 201 205 210 220 233 243 248 253 255 255 256 259 263 269 272 272 271 270 270 271 271 269 269 265 258 276 301 305 292 279 277 278 278 279 281 282 283 284 285 286 287 289 291 293 294 294 294 293 294 295 297 298 298 298 298 299 298 296 294 293 293 291 290 290 291 290 291 292 292 291 291 290 288 288 288 289 289 289 289 289 290 290 290
196 198 199 205 213 218 225 234 242 246 248 251 258 263 264 266 266 266 266 267 266 267 268 268 268 266 263 271 289 297 287 277 278 280 280 280 280 280 281 282 283 285 286 288 289 289 289 289 289 290 292 293 295 296 296 295 296 296 296 295 295 294 292 290 289 290 291 292 293 292 291 290 289 288 287 288 288 288 287 287 288 288 289 289 289
198 200 201 205 210 215 218 220 226 234 239 242 247 251 252 255 256 259 262 265 266 266 266 267 268 269 268 269 275 280 279 279 281 282 281 281 282 281 283 284 285 286 287 289 290 291 290 289 289 289 290 291 293 294 294 294 294 293 293 293 293 293 293 293 294 295 296 296 295 292 290 290 289 288 288 289 289 288 286 286 286 287 287 286 286
198 198 203 209 213 215 215 211 210 220 236 243 243 241 241 246 252 256 260 263 264 265 266 266 266 266 267 269 272 276 277 279 282 282 282 284 285 284 285 287 288 288 288 289 291 292 290 288 288 289 290 291 292 292 293 294 293 293 292 291 291 292 294 295 298 302 304 304 302 300 298 294 291 289 289 288 288 287 285 284 284 283 284 284 284
193 198 207 214 216 215 212 207 208 217 228 234 236 238 243 248 252 255 257 258 260 261 263 263 263 264 265 268 272 275 278 280 282 283 284 285 286 287 289 291 293 294 294 292 292 292 290 289 290 290 290 291 291 292 293 293 292 291 292 292 292 292 294 294 295 301 307 309 306 303 299 295 292 289 288 286 285 284 284 284 283 282 282 282 282
193 201 206 210 218 218 210 202 206 216 223 229 236 242 246 249 251 252 253 254 256 258 259 261 263 265 268 270 272 275 278 280 282 284 286 286 287 289 291 293 295 298 298 295 292 291 291 292 292 291 291 292 292 292 293 293 292 293 293 291 288 288 291 293 294 296 299 301 301 298 294 291 289 287 286 285 283 282 282 282 282 282 283 282 282
196 202 202 205 214 216 208 201 209 219 226 232 240 244 245 246 247 248 250 251 253 256 259 261 263 265 267 269 272 275 278 281 283 285 286 288 289 291 294 295 297 299 298 295 292 292 292 293 293 292 293 294 293 293 294 294 294 294 293 290 288 288 290 291 292 294 296 298 299 297 293 290 289 287 286 285 283 281 280 280 280 281 282 282 281
195 200 203 205 208 208 205 204 212 221 227 233 237 239 240 241 241 243 247 251 253 255 256 257 260 262 265 269 273 276 279 282 285 286 288 290 291 293 296 298 299 300 300 299 298 297 296 296 295 294 295 295 294 295 296 295 295 295 295 295 295 293 291 289 289 292 296 300 300 298 295 292 289 286 284 282 280 279 279 279 279 280 280 280 280
192 195 197 198 202 207 208 208 214 220 223 227 229 232 234 236 239 243 247 250 252 254 256 257 259 262 265 270 274 277 280 284 287 288 290 292 294 296 299 301 302 302 303 303 303 303 302 302 300 299 298 297 296 296 295 294 293 292 294 297 298 297 295 294 293 294 298 301 301 298 295 289 285 282 280 278 277 277 277 278 278 278 277 277 278